Boyd Deep Canyon Reserve, California Weather observations

Data are for 10 minute period ending at time listed.
 Day   Time   Solar   Ave.   Ave.  Ave.  Vector  Max.   Baro.   Total    
  of    of     Rad.   Air    Rel.  Wind   Wind   Wind  Press.  Precip.   
Year   Day            Temp.  Hum.  Speed  Dir.   Gust                    
2015   (PST)  Kw/m2    F      %     mph   deg.    mph    mb.     in.     
-------------------------------------------------------------------------
  63    4:20   0.00   54.1    43    8.9   198    12.9   979.6    0.00 
  63    4:30   0.00   54.1    42    7.9   194    10.5   979.7    0.00 
  63    4:40   0.00   54.5    41    7.6   196    10.2   979.9    0.00 
  63    4:50   0.00   54.5    41    7.4   198    10.4   980.1    0.00 
  63    5:00   0.00   54.4    40    6.3   207    12.5   980.3    0.00 
  63    5:10   0.00   53.9    42    6.8   196     9.9   980.4    0.00 
  63    5:20   0.00   53.5    42    7.2   195     9.9   980.5    0.00 
  63    5:30   0.00   53.3    42    8.4   198    13.1   980.5    0.00 
  63    5:40   0.00   53.4    41    8.3   194    11.9   980.6    0.00 
  63    5:50   0.00   53.4    40    9.6   204    11.8   980.7    0.00 
  63    6:00   0.00   53.1    40    8.8   197    12.3   980.9    0.00 
  63    6:10   0.00   53.1    39    9.9   196    13.2   981.0    0.00 
  63    6:20   0.00   53.6    38    8.2   195    10.4   981.2    0.00 
  63    6:30   0.01   53.1    39    7.7   203    11.4   981.4    0.00 
  63    6:40   0.01   53.0    39    8.2   203    10.9   981.4    0.00 
  63    6:50   0.03   53.3    38    7.4   204    10.2   981.6    0.00 
  63    7:00   0.10   53.9    36    6.5   196     9.6   981.7    0.00 
  63    7:10   0.14   54.2    35    6.9   196    11.2   982.0    0.00 
  63    7:20   0.17   54.5    35    5.1   197     8.6   982.2    0.00 
  63    7:30   0.21   55.5    33    3.9   200     7.5   982.5    0.00 
  63    7:40   0.25   56.0    31    4.8   186     8.0   982.7    0.00 
  63    7:50   0.28   56.7    31    1.5   259     4.3   982.9    0.00 
  63    8:00   0.32   59.1    26    1.3   305     5.3   983.1    0.00 
  63    8:10   0.36   60.2    26    1.8   200     5.0   983.4    0.00 
  63    8:20   0.40   59.5    24    2.3     1     7.5   983.5    0.00 
  63    8:30   0.44   59.9    22    3.5   360     9.3   983.7    0.00 
  63    8:40   0.47   59.7    20    4.5   275    14.1   983.9    0.00 
  63    8:50   0.51   59.3    20    6.7   262    14.3   984.1    0.00 
  63    9:00   0.54   59.5    24    7.5     8    10.3   984.2    0.00 
  63    9:10   0.57   60.2    21    4.5    10    10.2   984.2    0.00 
  63    9:20   0.60   60.9    19    2.2   340     5.5   984.3    0.00 
  63    9:30   0.63   61.0    18    5.3     9    11.5   984.2    0.00 
  63    9:40   0.66   60.4    17    4.3   360     9.9   984.3    0.00 
  63    9:50   0.68   60.8    18    5.2     9     9.6   984.4    0.00 
  63   10:00   0.71   61.1    18    3.4    28     7.6   984.4    0.00 
  63   10:10   0.73   61.1    18    4.9    21     9.1   984.5    0.00 
  63   10:20   0.75   61.2    18    5.4   349    12.9   984.5    0.00 
  63   10:30   0.77   61.6    18    3.9   282     9.6   984.5    0.00 
  63   10:40   0.79   62.6    17    2.3   314     5.8   984.4    0.00 
  63   10:50   0.81   61.8    17    3.0    56     6.0   984.4    0.00 
  63   11:00   0.82   62.9    18    3.9    60     9.8   984.3    0.00 
  63   11:10   0.83   63.1    17    4.3     8     8.8   984.4    0.00 
  63   11:20   0.84   62.8    17    4.7    14     8.5   984.4    0.00 
  63   11:30   0.85   63.4    16    2.8    38     9.8   984.4    0.00 
  63   11:40   0.85   63.6    16    7.3   356    12.3   984.5    0.00 
  63   11:50   0.85   63.7    14    5.7   180    18.1   984.4    0.00 
  63   12:00   0.86   63.8    15    5.1   160    14.0   984.2    0.00 
  63   12:10   0.86   64.2    14    4.5   255    12.1   984.2    0.00 
  63   12:20   0.86   64.2    14    2.6     2    10.0   984.1    0.00 
  63   12:30   0.84   64.7    14    4.5   328    11.5   984.0    0.00 
  63   12:40   0.84   65.0    14    4.0   332    15.8   983.9    0.00 
  63   12:50   0.84   65.4    14    7.0   354    14.1   983.7    0.00 
  63   13:00   0.84   65.6    14    4.0   322    12.3   983.6    0.00 
  63   13:10   0.82   65.9    14    5.0     8     9.3   983.4    0.00 
  63   13:20   0.81   66.6    14    4.7    20     8.8   983.2    0.00 
  63   13:30   0.79   67.0    13    3.6   356     8.4   983.1    0.00 
  63   13:40   0.77   66.6    13    5.1   349    12.1   983.0    0.00 
  63   13:50   0.75   66.8    12    5.4     7     9.6   983.0    0.00 
  63   14:00   0.73   67.0    11    3.1   276     7.2   983.0    0.00 
  63   14:10   0.71   67.3    13    5.9   356    12.4   982.9    0.00 
  63   14:20   0.68   67.5    13    7.1   357    12.3   982.8    0.00 
  63   14:30   0.66   67.4    12    6.8    12    12.0   982.8    0.00 
  63   14:40   0.63   67.5    12    5.4     6    13.7   982.8    0.00 
  63   14:50   0.60   67.8    12    4.9     2     9.7   982.8    0.00 
  63   15:00   0.57   68.0    11    3.9   343     9.3   982.8    0.00 
  63   15:10   0.54   68.2    12    5.7     4    10.5   982.8    0.00 
  63   15:20   0.51   67.8    11    7.5   349    11.6   982.9    0.00 
  63   15:30   0.47   67.4    12    6.3   358     9.7   982.9    0.00 
  63   15:40   0.44   67.4    11    5.4   344    10.6   982.9    0.00 
  63   15:50   0.40   67.5    11    5.0   347    10.0   982.8    0.00 
  63   16:00   0.36   67.5    11    5.3   348     8.8   982.9    0.00 
  63   16:10   0.33   67.4    11    3.6   357     8.0   983.1    0.00 
  63   16:20   0.19   67.4    11    3.5     3     6.2   983.1    0.00 
  63   16:30   0.24   67.5    11    3.4   360     8.8   983.2    0.00 
  63   16:40   0.17   67.6    11    3.3     3     7.3   983.3    0.00 
  63   16:50   0.03   66.4    12    2.5   276     5.2   983.4    0.00 
  63   17:00   0.03   65.8    12    3.4   216     5.8   983.5    0.00 
  63   17:10   0.03   65.5    12    2.5   205     5.0   983.5    0.00 
  63   17:20   0.02   65.3    12    2.8   216     5.2   983.6    0.00 
  63   17:30   0.01   64.5    15    4.6   208     5.6   983.7    0.00 
  63   17:40   0.01   63.8    16    4.3   189     5.7   983.8    0.00 
  63   17:50   0.00   63.2    17    3.8   192     5.1   983.9    0.00 
  63   18:00   0.00   62.9    17    5.3   194     6.9   984.0    0.00 
  63   18:10   0.00   63.0    16    5.4   195     7.1   984.1    0.00 
  63   18:20   0.00   62.9    16    6.6   202     8.7   984.2    0.00 
  63   18:30   0.00   62.7    15    7.4   212    11.1   984.3    0.00 
  63   18:40   0.00   62.5    16    9.3   212    12.8   984.4    0.00 
  63   18:50   0.00   62.3    16    9.2   222    13.4   984.5    0.00 
  63   19:00   0.00   61.4    17    9.4   212    15.9   984.6    0.00 
  63   19:10   0.00   61.1    17   10.9   210    17.0   984.8    0.00 
  63   19:20   0.00   60.8    17   11.6   218    15.9   984.9    0.00 
  63   19:30   0.00   60.6    17   10.5   210    16.5   985.1    0.00 
  63   19:40   0.00   60.3    17   11.3   211    17.4   985.2    0.00 
  63   19:50   0.00   59.9    18    9.3   214    14.5   985.2    0.00 
  63   20:00   0.00   59.6    18    8.4   216    12.4   985.2    0.00 
  63   20:10   0.00   59.5    18   10.3   222    15.1   985.3    0.00 
  63   20:20   0.00   59.6    17   10.0   211    16.1   985.4    0.00 
  63   20:30   0.00   59.5    18    8.4   217    14.3   985.6    0.00 
  63   20:40   0.00   59.7    17   11.6   224    16.1   985.7    0.00 
  63   20:50   0.00   59.5    17   10.3   221    15.0   985.9    0.00 
  63   21:00   0.00   59.0    18   11.1   212    15.6   985.9    0.00 
  63   21:10   0.00   58.9    18   10.6   216    16.1   986.0    0.00 
  63   21:20   0.00   58.8    18   10.8   214    17.1   986.2    0.00 
  63   21:30   0.00   58.5    18   10.8   211    17.3   986.3    0.00 
  63   21:40   0.00   58.3    18    9.5   213    14.5   986.4    0.00 
  63   21:50   0.00   58.1    18   10.8   206    14.8   986.5    0.00 
  63   22:00   0.00   58.0    18   11.7   219    17.5   986.6    0.00 
  63   22:10   0.00   58.1    18   11.0   212    18.6   986.7    0.00 
  63   22:20   0.00   58.0    18   10.2   224    16.2   986.8    0.00 
  63   22:30   0.00   58.2    17   10.1   226    15.1   986.8    0.00 
  63   22:40   0.00   58.4    17   11.8   230    15.8   986.9    0.00 
  63   22:50   0.00   57.9    18   11.5   208    16.7   986.9    0.00 
  63   23:00   0.00   57.7    18   10.5   219    15.3   987.0    0.00 
  63   23:10   0.00   57.5    18   11.5   217    17.2   987.0    0.00 
  63   23:20   0.00   57.4    18   10.5   211    15.9   987.0    0.00 
  63   23:30   0.00   56.8    19   10.3   210    17.8   987.0    0.00 
  63   23:40   0.00   56.8    19   10.8   205    16.6   987.0    0.00 
  63   23:50   0.00   56.6    19   10.2   212    16.7   987.0    0.00 
  64    0:00   0.00   56.6    19   10.0   210    15.2   987.1    0.00 
  64    0:10   0.00   56.5    19   11.3   216    16.9   987.0    0.00 
  64    0:20   0.00   56.5    19   12.1   222    17.5   987.0    0.00 
  64    0:30   0.00   56.3    20   10.0   215    17.2   987.1    0.00 
  64    0:40   0.00   56.0    20    9.7   217    14.4   987.1    0.00 
  64    0:50   0.00   56.1    20   10.8   221    17.0   987.1    0.00 
  64    1:00   0.00   56.5    20   11.7   221    18.9   987.1    0.00 
  64    1:10   0.00   56.6    20   12.8   226    16.7   987.4    0.00 
  64    1:20   0.00   56.7    19   12.6   224    18.0   987.4    0.00 
  64    1:30   0.00   56.5    20   13.0   220    17.8   987.5    0.00 
  64    1:40   0.00   56.4    20   13.7   223    18.4   987.6    0.00 
  64    1:50   0.00   56.2    21   11.8   221    17.8   987.6    0.00 
  64    2:00   0.00   56.1    21   11.7   224    16.6   987.6    0.00 
  64    2:10   0.00   56.1    21   12.1   227    17.2   987.6    0.00 
  64    2:20   0.00   55.8    21   12.9   221    18.7   987.5    0.00 
  64    2:30   0.00   55.8    21   11.9   219    16.7   987.5    0.00 
  64    2:40   0.00   55.7    21   13.0   225    18.3   987.4    0.00 
  64    2:50   0.00   55.7    21   13.0   222    18.4   987.4    0.00 
  64    3:00   0.00   55.6    21   12.8   218    16.9   987.4    0.00 
  64    3:10   0.00   55.5    21   12.6   224    17.7   987.4    0.00 
  64    3:20   0.00   55.4    21   11.2   223    18.1   987.4    0.00 
  64    3:30   0.00   55.3    21   11.8   228    16.9   987.4    0.00 
  64    3:40   0.00   55.1    22   10.9   226    16.2   987.4    0.00 
  64    3:50   0.00   55.5    21   11.9   225    17.2   987.4    0.00 
  64    4:00   0.00   55.4    21   12.5   224    17.8   987.4    0.00 
  64    4:10   0.00   55.5    20   11.6   221    18.2   987.5    0.00 

Return to Boyd Deep Canyon Reserve graphs page.


Western Regional Climate Center,wrcc@dri.edu